This is the latest recevied weather packets stored in our database for station/object K5KVN. If no packets are shown the sender has not sent any weather packets the latest 10 day(s).
| Time | Temp. | Humidity | Pressure | Rain* | Wind** | Luminosity | Snow |
|---|---|---|---|---|---|---|---|
| 1777755434 | 19.44° C | 43% | 1020.5 hPa | 0 mm | - | - | - |
| 1777754834 | 19.44° C | 38% | 1020.6 hPa | 0 mm | - | - | - |
| 1777754233 | 19.44° C | 47% | 1020.7 hPa | 0 mm | - | - | - |
| 1777753633 | 19.44° C | 45% | 1020.8 hPa | 0 mm | - | - | - |
| 1777753032 | 19.44° C | 43% | 1020.8 hPa | 0 mm | - | - | - |
| 1777752430 | 19.44° C | 45% | 1020.8 hPa | 0 mm | - | - | - |
| 1777751830 | 18.89° C | 42% | 1020.7 hPa | 0 mm | - | - | - |
| 1777751232 | 19.44° C | 42% | 1020.8 hPa | 0 mm | - | - | - |
| 1777750632 | 19.44° C | 41% | 1020.9 hPa | 0 mm | - | - | - |
| 1777750031 | 18.89° C | 44% | 1020.9 hPa | 0 mm | - | - | - |
| 1777749430 | 18.33° C | 44% | 1021 hPa | 0 mm | - | - | - |
| 1777748829 | 18.33° C | 43% | 1020.9 hPa | 0 mm | - | - | - |
| 1777748230 | 18.33° C | 45% | 1021.1 hPa | 0 mm | - | - | - |
| 1777747629 | 18.89° C | 43% | 1021.1 hPa | 0 mm | - | - | - |
| 1777747030 | 18.89° C | 44% | 1021.1 hPa | 0 mm | - | - | - |
| 1777746428 | 18.33° C | 48% | 1021.2 hPa | 0 mm | - | - | - |
| 1777745829 | 18.33° C | 43% | 1021.2 hPa | 0 mm | - | - | - |
| 1777745229 | 18.33° C | 48% | 1021.3 hPa | 0 mm | - | - | - |
| 1777744629 | 18.33° C | 49% | 1021.6 hPa | 0 mm | - | - | - |
| 1777744028 | 17.78° C | 47% | 1021.7 hPa | 0 mm | - | - | - |
| 1777743430 | 17.78° C | 48% | 1021.8 hPa | 0 mm | - | - | - |
| 1777742829 | 17.78° C | 45% | 1021.8 hPa | 0 mm | - | - | - |
| 1777742228 | 17.78° C | 47% | 1021.8 hPa | 0 mm | - | - | - |
| 1777741689 | 17.22° C | 45% | 1022 hPa | 0 mm | - | - | - |
| 1777741029 | 17.22° C | 46% | 1022.1 hPa | 0 mm | - | - | - |
* Rain latest hour (hover to see other rain measurements)
** Current wind speed in m/s (hover to see current wind gust speed)